Terminal Aerodrome Forecast
Issued by NWS Boise, ID

Home | Current Version | Previous Version | Text Only | Print | Product List | Glossary On
Versions: 1 2 3 4 5 6 7 8 9 10 11 12 13 14 15 16 17 18 19 20 21 22 23 24 25 26 27 28 29 30 31 32 33 34 35
450
FTUS45 KBOI 231128
TAFBOI
TAF
KBOI 231128Z 2312/2412 32013G23KT P6SM VCSH OVC100
     FM231800 30020G30KT P6SM OVC100
     FM240100 30011KT P6SM BKN100=

USA.gov is the U.S. government's official web portal to all federal, state and local government web resources and services.